I8ZSE-10 Weather Reports


time (UTC)temp
C
wind
direction
speed
KPH
gust
KPH
rain 1hr
cm
rain 24hr
cm
rain mn
cm
humidity
%
barometer
mb
20260504021008 9 269 3.2 4.8 0.00 0.00 0.00 69 1018.3
20260504020008 9 271 3.2 4.8 0.00 0.00 0.00 68 1018.3
20260504015008 10 272 3.2 4.8 0.00 0.00 0.00 68 1018.4
20260504014008 10 264 3.2 4.8 0.00 0.00 0.00 69 1018.3
20260504013008 9 265 3.2 4.8 0.00 0.00 0.00 70 1018.2
20260504012008 10 280 3.2 4.8 0.00 0.00 0.00 70 1018.2
20260504011008 10 276 3.2 4.8 0.00 0.00 0.00 69 1018.3
20260504010009 10 199 3.2 4.8 0.00 0.00 0.00 67 1018.4
20260504005008 10 273 3.2 3.2 0.00 0.00 0.00 66 1018.5
20260504004008 10 268 3.2 4.8 0.00 0.00 0.00 67 1018.5
20260504003008 10 263 3.2 3.2 0.00 0.00 0.00 66 1018.6
20260504002008 10 264 3.2 4.8 0.00 0.00 0.00 66 1018.7
20260504001008 10 268 3.2 3.2 0.00 0.00 0.00 66 1018.6
20260504000008 10 277 3.2 3.2 0.00 0.00 0.00 64 1018.8
20260503235008 10 268 3.2 3.2 0.00 0.00 0.00 63 1018.9
20260503234008 10 260 3.2 3.2 0.00 0.00 0.00 63 1018.9
20260503233008 10 267 3.2 3.2 0.00 0.00 0.00 63 1018.9
20260503232008 11 278 3.2 3.2 0.00 0.00 0.00 62 1019.0
20260503231008 10 270 3.2 4.8 0.00 0.00 0.00 63 1018.9
20260503230008 10 216 3.2 4.8 0.00 0.00 0.00 63 1018.9
20260503225008 11 269 3.2 4.8 0.00 0.00 0.00 62 1019.0
20260503224008 10 265 3.2 4.8 0.00 0.00 0.00 63 1018.9
20260503223008 11 266 3.2 4.8 0.00 0.00 0.00 63 1018.9
20260503222008 11 266 3.2 4.8 0.00 0.00 0.00 63 1019.0
20260503221008 11 275 3.2 4.8 0.00 0.00 0.00 64 1018.9
20260503220008 11 268 3.2 4.8 0.00 0.00 0.00 65 1018.9
20260503215008 11 273 3.2 4.8 0.00 0.00 0.00 66 1018.8
20260503214008 10 263 3.2 3.2 0.00 0.00 0.00 67 1018.8
20260503213008 10 260 1.6 3.2 0.00 0.00 0.00 67 1018.8
20260503212008 11 273 3.2 3.2 0.00 0.00 0.00 65 1018.8
20260503211008 11 279 3.2 3.2 0.00 0.00 0.00 65 1018.9
20260503210008 11 281 1.6 3.2 0.00 0.00 0.00 64 1019.0
20260503205008 11 275 1.6 3.2 0.00 0.00 0.00 62 1019.1
20260503204008 11 266 3.2 4.8 0.00 0.00 0.00 61 1019.0
20260503203008 12 267 3.2 4.8 0.00 0.00 0.00 61 1019.0
20260503202008 12 264 3.2 4.8 0.00 0.00 0.00 60 1019.1
20260503201008 12 266 3.2 4.8 0.00 0.00 0.00 59 1019.2
20260503200009 12 264 3.2 4.8 0.00 0.00 0.00 58 1019.2
20260503195008 13 263 3.2 6.4 0.00 0.00 0.00 56 1019.3
20260503194008 12 270 3.2 4.8 0.00 0.00 0.00 56 1019.2
20260503193008 13 251 3.2 4.8 0.00 0.00 0.00 53 1019.2
20260503192008 14 258 3.2 4.8 0.00 0.00 0.00 51 1019.3
20260503191008 14 255 3.2 4.8 0.00 0.00 0.00 52 1019.3
20260503190009 14 256 4.8 6.4 0.00 0.00 0.00 52 1019.2
20260503185009 14 252 4.8 8.0 0.00 0.00 0.00 51 1019.0
20260503184008 14 254 4.8 6.4 0.00 0.00 0.00 52 1018.8
20260503183008 15 257 4.8 6.4 0.00 0.00 0.00 51 1018.9
20260503182008 15 261 3.2 6.4 0.00 0.00 0.00 50 1019.1
20260503181008 15 274 4.8 6.4 0.00 0.00 0.00 50 1019.0
20260503180008 16 261 4.8 6.4 0.00 0.00 0.00 49 1019.1
20260503175008 16 268 4.8 6.4 0.00 0.00 0.00 49 1019.0
20260503174008 16 272 4.8 6.4 0.00 0.00 0.00 50 1019.0
20260503173008 16 295 4.8 6.4 0.00 0.00 0.00 49 1019.0
20260503172008 17 303 4.8 6.4 0.00 0.00 0.00 47 1019.1
20260503171008 17 307 4.8 8.0 0.00 0.00 0.00 46 1019.2
20260503151008 19 269 8.0 9.7 0.00 0.00 0.00 33 1019.7
20260503131008 18 284 6.4 8.0 0.00 0.00 0.00 35 1020.3
20260503081008 15 238 9.7 12.9 0.00 0.00 0.00 40 1020.3
20260503072008 13 277 6.4 9.7 0.00 0.00 0.00 43 1019.8
20260503071008 13 284 6.4 8.0 0.00 0.00 0.00 45 1019.8
20260503055008 8 280 1.6 1.6 0.00 0.00 0.00 61 1018.7
20260503054008 8 260 1.6 1.6 0.00 0.00 0.00 63 1018.6
20260503053008 7 277 1.6 1.6 0.00 0.00 0.00 65 1018.4
20260503052008 7 276 1.6 1.6 0.00 0.00 0.00 66 1018.2
20260503051008 6 280 1.6 1.6 0.00 0.00 0.00 67 1018.1
20260503050008 6 275 1.6 3.2 0.00 0.00 0.00 66 1018.0
20260503045008 6 269 1.6 3.2 0.00 0.00 0.00 66 1018.1
20260503044008 6 275 1.6 3.2 0.00 0.00 0.00 68 1018.0
20260503043008 6 257 1.6 3.2 0.00 0.00 0.00 69 1017.9
20260503042008 5 266 1.6 3.2 0.00 0.00 0.00 69 1017.9
20260503041008 5 257 1.6 3.2 0.00 0.00 0.00 69 1017.8
20260503040008 5 265 1.6 1.6 0.00 0.00 0.00 70 1017.7
20260503035008 5 265 1.6 3.2 0.00 0.00 0.00 70 1017.8
20260503034008 5 271 1.6 3.2 0.00 0.00 0.00 70 1017.8
20260503033008 5 276 1.6 1.6 0.00 0.00 0.00 70 1017.9
20260503032008 6 270 1.6 3.2 0.00 0.00 0.00 69 1018.0
20260503031008 5 267 1.6 3.2 0.00 0.00 0.00 71 1017.9
20260503030008 5 267 1.6 3.2 0.00 0.00 0.00 71 1017.9
20260503025008 6 269 1.6 3.2 0.00 0.00 0.00 70 1018.0
20260503024008 6 278 1.6 3.2 0.00 0.00 0.00 68 1018.1
20260503023008 6 258 1.6 3.2 0.00 0.00 0.00 68 1018.2
20260503022008 6 259 3.2 3.2 0.00 0.00 0.00 70 1018.2